Погода в Кизилюрте

Россия / Республика Дагестан     43°12′16″N   46°52′00″E
темп.,
°C
ветер,
м/с
пор.,
м/с
влажн.,
%
обл.,
%
осадки,
мм/ч
давл.,
гПа
погр.,
м
5 августа, чт
чт500:00+27юз113878 0.0 101113
03:00+26юз223830 0.0 101121
06:00+29зюз38365 0.0 1011283
09:00+35зсз77285 0.0 10121189
12:00+38зсз65215 0.0 10102211
15:00+36ююз7729100 0.1 10092012
18:00+35юв3425100 0.0 1009385
21:00+26юз334941 0.3 101043
6 августа, пт
пт600:00+25ю014437 0.0 101011
03:00+23ююв11500 0.0 101011
06:00+25в11460 0.0 101057
09:00+34в56270 0.0 1009988
12:00+38в77190 0.0 10081928
15:00+37в88200 0.0 10061453
18:00+32в811290 0.0 1006648
21:00+26в611520 0.0 1006246
7 августа, сб
сб700:00+24вюв35590 0.0 100587
03:00+22вюв11658 0.0 100511
06:00+25вюв11501 0.0 100555
09:00+36в45190 0.0 1004945
12:00+42в87120 0.0 10022304
15:00+41вюв1111126 0.0 10011712
18:00+37вюв1015160 0.0 1001887
21:00+28вюв610430 0.0 1002174
8 августа, вс
вс800:00+25св1251100 0.0 100415
03:00+28з612405 0.0 1005360
06:00+28з713415 0.0 1007608
09:00+34з893124 0.0 10081162
12:00+39зсз55225 0.0 10072190
15:00+40ссз43194 0.0 10072724
18:00+36в44307 0.1 1008380
21:00+27зюз465515 0.4 100982
9 августа, пн
пн900:00+27зюз47534 0.0 1010117
03:00+27з35524 0.0 101193
06:00+26з35632 0.6 1012113
09:00+33сз333728 0.6 1011859
12:00+39ссв21235 0.0 10102159
15:00+40в64213 0.1 10082703
18:00+34в673338 0.0 1009565
21:00+27зюз2264100 2.3 101030